Погода Актобе

Погода Актобе : погода сейчас, прогноз погоды и архив. Всё, что Вы хотите узнать о погоде Актобе!

Хотите узнать прогноз погоды Актобе? Тогда Вам сюда: Погода Актобе

Поиск расширенной информации на нашем сайте:

Другие новости

Новости СМИ2

Главная страница сайта

Новости сайта

03.07.2017

Напоминаем, что на нашем специализированном сайте Метеоцентр.Азия вы можете получить высокодетализированные автоматические прогнозы погоды по пунктам России, СНГ и мира в авиационном формате (включающие направление и скорость ветра, видимость, явления погоды, количество и форму облачности, нижнюю и верхнюю границу облачности).


Погода Актобе - сегодня

Время (UTC), дата Ветер
(°,м/с) 
Видим.   Явления Облачность Т
(°С)
Тd
(°С)
f(%) Тe
(°С)
Pmin
(гПа)
dP
(гПа)
Po
(мм)
O2
(г/м3)
Тmin Tmax R s Состояние
почвы
18 13.06.18 090 (В) н/о    3/0 верхняя 
[Ci fib]
+13.8 +2.9 48 +15  1013.5  0.3  741  284    +23.7       
21 13.06.18 090 (В) н/о    ясно 
+10.4 +2 56 +12  1013.4  0.4  740  287           
00 14.06.18 170 (Ю) 10 км    10/0 средняя 
[Ac As]
+9.6 +2.3 60 +11  1013  -0.5  740  288           
06 14.06.18 290 (З) 20000 м    9/4 1000 м кучево-дожд., средняя 
[Cb calv|Ac und]
+22.7 +4 29 +23  1012.3  740  275  +9.5         
09 14.06.18 300 (СЗ) 10 км  пыльный позёмок  3/1 1500 м верхняя 
[Cu hum|Ci fib]
+27.5 +0 17 +28  1010.8  -1  740  271           
15 14.06.18 320 (СЗ) 20000 м    8/3 600 м кучево-дожд., средняя, верхняя 
[Cb calv|Ac trans|Ci fib]
+26.3 +8.3 32 +26  1010.3  0.1  739  270    +28       
21 14.06.18 220 (ЮЗ) н/о    3/0 верхняя 
[Ci fib]
+14.3 +11.9 85 +20  1012.4  740  281           
00 15.06.18 190 (Ю) 10 км    8/5 1000 м кучево-дожд., средняя 
[Cb calv|Ac und]
+14.3 +12.3 88 +21  1012.3  -0.1  740  281           
06 15.06.18 040 (СВ) 20000 м    6/0 средняя 
[Ac As]
+24.3 +12.6 48 +29  1012.3  -0.4  741  272  +14         
09 15.06.18 050 (СВ) 20000 м    8/0 средняя 
[Ac As]
+26.9 +13.9 45 +34  1010.9  -1.2  740  269           
12 15.06.18 050 (СВ) 20000 м    4/0 средняя 
[Ac trans]
+26.7 +10.9 37 +29  1010.5  -0.4  739  269           
15 15.06.18 040 (СВ) 10 км    9/3 600 м кучево-дожд., средняя 
[Cb calv|Ac As]
+22.3 +9.9 45 +24  1011.4  0.6  740  274    +28       
18 15.06.18 020 (С) н/о    10/4 600 м кучево-дожд., средняя 
[Cb calv|Ac As]
+19 +11 60 +23  1011.8  0.1  740  277    +28       
21 15.06.18 040 (СВ) н/о    10/4 600 м кучево-дожд., средняя 
[Cb calv|Ac As]
+17 +10.3 65 +20  1012.4  0.4  740  279           
00 16.06.18 050 (СВ) 10 км    10/3 600 м кучево-дожд., средняя 
[Cb calv|Ac As]
+14.7 +9.3 70 +16  1011.8  -0.8  740  281           
09 16.06.18 090 (В) 20000 м  {ливн. осадки}  8/3 600 м кучево-дожд., средняя 
[Cb calv|Ac As]
+16 +11.6 75 +21  1012.1  -0.3  740  279           
21 16.06.18 060 (СВ) н/о    4/0 средняя 
[Ac trans]
+12.8 +5.4 61 +13  1010.5  -0.2  739  283           
00 17.06.18 060 (СВ) 10 км    3/0 верхняя 
[Ci fib]
+9.4 +5.2 75 +10  1011.6  0.7  739  287           
06 17.06.18 320 (СЗ) 20000 м    4/4 1000 м 
[Cu med, cong]
+16.8 +4.9 45 +17  1010.2  -0.5  739  280  +8.9         
09 17.06.18 350 (С) 20000 м    3/3 1000 м 
[Cu hum]
+20.2 +6.1 40 +20  1008.9  -1  738  276           
21 17.06.18 350 (С) н/о    4/0 средняя 
[Ac trans]
+12.8 +6.6 66 +14  1008.7  -0.2  737  283           
00 18.06.18 350 (С) 10 км    10/0 средняя 
[Ac cuf]
+10.7 +6 73 +12  1008.8  737  285           
06 18.06.18 020 (С) 20000 м    5/5 1000 м 
[Cu med, cong]
+18.3 +8.3 52 +19  1008.4  737  277  +10.6         
09 18.06.18 330 (СЗ) 20000 м    3/0 
[Cu med, cong]
+21.5 +6.2 37 +22  1007.5  -0.7  737  274           
12 18.06.18 350 (С) 20000 м    1/0 
[Cu hum]
+23.5 +6.6 34 +24  1006.7  -0.5  736  272           
Время (UTC), дата Ветер
(°,м/с) 
Видим.   Явления Облачность Т
(°С)
Тd
(°С)
f(%) Тe
(°С)
Pmin
(гПа)
dP
(гПа)
Po
(мм)
O2
(г/м3)
Тmin Tmax R s Состояние
почвы

Для получения пояснительной информации подведите курсор к названию столбца.

ПОГОДА Актобе - архив

Всё, что Вы хотите узнать о погоде Актобе - удобно и подробно!

Выберите нужную дату (начиная с 1 января 2015* года) и нажмите кнопку "Найти".
Будут отображены архивные сводки погоды по пункту Актобе, начиная с указанной даты.


Отображать данные в формате CSV (для использования в таблицах Excel)


Внимание! Наш архив погоды предназначен исключительно для личного некоммерческого использования в познавательных целях. Если Вам необходимы официальные справки о состоянии погоды (для производственных, юридических, коммерческих и т.п. целей), обращайтесь в органы Росгидромета.

*Примечание: данная дата относится к архиву по метеостанциям СССР (Россия, СНГ, Балтия).
Архив по метеостанциям Зарубежной Европы и Азии (кроме Китая) хранится 10 дней, по другим регионам земного шара (Китай, Африка, Америка, Австралия, Океания) - 1 день.

Актобе - район местоположения метеостанции


Название, широта, долгота, высота метеостанции:
Актобе (город) 50.3°ш. 57.2°д. 219 м над ур. моря [Казахстан]

Дополнительная информация

В oтличие oт бoльшинства пoгoдных сайтoв мы публикуем пoдрoбную метеoинфoрмацию в детальнoм прoфессиoнальнoм фoрмате.

Характеристики температуры и влажнoсти вoздуха измеряются на высoте 2 м в тени вдали oт зданий и деревьев.
Скoрoсть ветра измеряется на высoте 10 м (на урoвне рoста челoвека скoрoсть ветра ниже в 1.5-2 раза). Если метеoстанция нахoдится в гoрoде или в лесу, тo скoрoсть ветра занижена на 2-4 м/с пo сравнению с oткрытым местoм. Скoрoсть ветра над акватoриями крупных рек и oзёр, а также на вершинах хoлмoв на 2-5 м/с выше, чем в oбычных услoвиях.
Атмoсфернoе давление в разных тoчках местнoсти мoжет значительнo oтличаться oт давления на метеoстанции, в зависимoсти oт услoвий рельефа (при пoдъёме на 10 м давление пoнижается примернo на 1 мм рт.ст.).